| time (UTC) | temp F | wind direction | speed MPH | gust MPH | rain 1hr in | rain 24hr in | rain mn in | humidity % | barometer mb |
| 20260831061523 | 55 | 237 | 2.0 | 5.0 | 0.00 | 0.00 | 0.00 | 89 | 1005.0 |
| 20260831060022 | 54 | 177 | 0.0 | 3.0 | 0.00 | 0.00 | 0.00 | 90 | 1005.0 |
| 20260831054522 | 53 | 228 | 0.0 | 3.0 | 0.00 | 0.01 | 0.00 | 92 | 1005.1 |
| 20260831051525 | 53 | 217 | 0.0 | 2.0 | 0.00 | 0.01 | 0.00 | 92 | 1005.3 |
| 20260831050021 | 53 | 215 | 0.0 | 2.0 | 0.00 | 0.01 | 0.00 | 91 | 1005.3 |
| 20260831044520 | 53 | 198 | 1.0 | 3.0 | 0.00 | 0.01 | 0.00 | 91 | 1005.1 |
| 20260831041519 | 54 | 198 | 1.0 | 5.0 | 0.00 | 0.01 | 0.00 | 92 | 1005.0 |
| 20260831040016 | 54 | 180 | 1.0 | 7.0 | 0.00 | 0.01 | 0.00 | 92 | 1005.1 |
| 20260831034516 | 53 | 190 | 0.0 | 6.0 | 0.00 | 0.01 | 0.00 | 93 | 1005.1 |
| 20260831031514 | 54 | 206 | 0.0 | 3.0 | 0.00 | 0.01 | 0.00 | 92 | 1005.1 |
| 20260831030012 | 54 | 202 | 1.0 | 3.0 | 0.00 | 0.01 | 0.00 | 91 | 1005.1 |
| 20260831024512 | 54 | 173 | 0.0 | 4.0 | 0.00 | 0.01 | 0.00 | 91 | 1005.3 |
| 20260831021510 | 55 | 182 | 1.0 | 4.0 | 0.00 | 0.01 | 0.00 | 88 | 1005.2 |
| 20260831020007 | 55 | 186 | 0.0 | 4.0 | 0.00 | 0.01 | 0.00 | 88 | 1005.2 |
| 20260831014506 | 55 | 184 | 0.0 | 3.0 | 0.00 | 0.02 | 0.00 | 87 | 1005.4 |
| 20260831011503 | 56 | 213 | 2.0 | 8.0 | 0.00 | 0.02 | 0.00 | 87 | 1005.4 |
| 20260831010004 | 55 | 188 | 2.0 | 10.0 | 0.00 | 0.02 | 0.00 | 89 | 1005.5 |
| 20260831004501 | 55 | 184 | 0.0 | 5.0 | 0.00 | 0.02 | 0.00 | 88 | 1005.5 |
| 20260831001600 | 56 | 155 | 1.0 | 6.0 | 0.00 | 0.02 | 0.00 | 87 | 1005.7 |
| 20260831000058 | 56 | 182 | 1.0 | 5.0 | 0.00 | 0.02 | 0.00 | 86 | 1005.7 |
| 20260830234656 | 57 | 171 | 2.0 | 6.0 | 0.00 | 0.02 | 0.00 | 85 | 1005.6 |
| 20260830231553 | 57 | 160 | 3.0 | 7.0 | 0.00 | 0.02 | 0.00 | 86 | 1005.6 |
| 20260830230052 | 57 | 219 | 1.0 | 10.0 | 0.00 | 0.02 | 0.00 | 85 | 1005.4 |
| 20260830224651 | 57 | 254 | 3.0 | 10.0 | 0.00 | 0.02 | 0.00 | 86 | 1005.5 |
| 20260830221554 | 57 | 181 | 2.0 | 8.0 | 0.00 | 0.02 | 0.00 | 86 | 1005.2 |
| 20260830214547 | 57 | 225 | 2.0 | 8.0 | 0.00 | 0.03 | 0.02 | 87 | 1005.3 |
| 20260830211554 | 58 | 220 | 2.0 | 9.0 | 0.00 | 0.03 | 0.02 | 86 | 1005.2 |
| 20260830210052 | 58 | 184 | 3.0 | 9.0 | 0.00 | 0.03 | 0.02 | 86 | 1005.1 |
| 20260830204538 | 58 | 223 | 3.0 | 12.0 | 0.00 | 0.04 | 0.02 | 86 | 1004.9 |
| 20260830201535 | 59 | 184 | 3.0 | 11.0 | 0.00 | 0.04 | 0.02 | 87 | 1004.8 |
| 20260830200035 | 59 | 169 | 3.0 | 8.0 | 0.00 | 0.04 | 0.02 | 87 | 1004.7 |
| 20260830194530 | 59 | 190 | 2.0 | 7.0 | 0.00 | 0.04 | 0.02 | 87 | 1004.5 |
| 20260830191530 | 60 | 186 | 2.0 | 9.0 | 0.00 | 0.04 | 0.02 | 87 | 1004.3 |
| 20260830190026 | 60 | 257 | 2.0 | 8.0 | 0.00 | 0.04 | 0.02 | 86 | 1004.1 |
| 20260830184524 | 61 | 222 | 2.0 | 6.0 | 0.00 | 0.04 | 0.02 | 84 | 1004.2 |
| 20260830181522 | 62 | 163 | 2.0 | 10.0 | 0.00 | 0.04 | 0.02 | 83 | 1003.8 |
| 20260830180026 | 63 | 216 | 3.0 | 9.0 | 0.00 | 0.04 | 0.02 | 82 | 1003.6 |
| 20260830174519 | 63 | 179 | 3.0 | 10.0 | 0.00 | 0.04 | 0.02 | 82 | 1003.3 |
| 20260830171516 | 64 | 210 | 4.0 | 13.0 | 0.00 | 0.04 | 0.02 | 81 | 1003.0 |
| 20260830170019 | 65 | 179 | 3.0 | 10.0 | 0.00 | 0.04 | 0.02 | 81 | 1003.0 |
| 20260830164513 | 65 | 215 | 3.0 | 11.0 | 0.00 | 0.04 | 0.02 | 80 | 1002.8 |
| 20260830161525 | 67 | 225 | 4.0 | 12.0 | 0.00 | 0.04 | 0.02 | 80 | 1002.4 |
| 20260830160013 | 68 | 153 | 3.0 | 10.0 | 0.00 | 0.04 | 0.02 | 78 | 1002.2 |
| 20260830154509 | 68 | 200 | 3.0 | 13.0 | 0.00 | 0.06 | 0.02 | 77 | 1002.0 |
| 20260830151507 | 69 | 203 | 2.0 | 9.0 | 0.00 | 0.06 | 0.02 | 77 | 1002.0 |
| 20260830150006 | 70 | 172 | 2.0 | 8.0 | 0.00 | 0.06 | 0.02 | 77 | 1001.9 |
| 20260830144505 | 69 | 184 | 2.0 | 8.0 | 0.00 | 0.06 | 0.02 | 80 | 1001.9 |
| 20260830141504 | 70 | 168 | 2.0 | 8.0 | 0.00 | 0.06 | 0.02 | 78 | 1001.8 |
| 20260830140002 | 70 | 186 | 2.0 | 8.0 | 0.00 | 0.06 | 0.02 | 77 | 1001.7 |
| 20260830134558 | 68 | 153 | 2.0 | 8.0 | 0.00 | 0.06 | 0.02 | 81 | 1001.7 |
| 20260830131558 | 67 | 128 | 2.0 | 8.0 | 0.00 | 0.06 | 0.02 | 84 | 1001.7 |
| 20260830130111 | 66 | 157 | 3.0 | 10.0 | 0.00 | 0.06 | 0.02 | 84 | 1001.7 |
| 20260830124556 | 66 | 193 | 3.0 | 9.0 | 0.00 | 0.06 | 0.02 | 85 | 1001.6 |
| 20260830121558 | 66 | 201 | 3.0 | 10.0 | 0.00 | 0.06 | 0.02 | 84 | 1001.6 |
| 20260830120057 | 67 | 192 | 3.0 | 9.0 | 0.00 | 0.06 | 0.02 | 84 | 1001.5 |
| 20260830114612 | 67 | 178 | 2.0 | 10.0 | 0.00 | 0.06 | 0.02 | 84 | 1001.4 |
| 20260830111551 | 68 | 157 | 1.0 | 6.0 | 0.00 | 0.06 | 0.02 | 83 | 1001.3 |
| 20260830110049 | 67 | 198 | 1.0 | 4.0 | 0.00 | 0.06 | 0.02 | 82 | 1001.2 |
| 20260830104550 | 68 | 164 | 0.0 | 3.0 | 0.00 | 0.06 | 0.02 | 81 | 1001.2 |
| 20260830101553 | 67 | 155 | 0.0 | 3.0 | 0.00 | 0.06 | 0.02 | 81 | 1001.4 |
| 20260830100048 | 66 | 218 | 0.0 | 6.0 | 0.00 | 0.06 | 0.02 | 81 | 1001.3 |
| 20260830094546 | 66 | 210 | 0.0 | 4.0 | 0.00 | 0.06 | 0.02 | 82 | 1001.3 |
| 20260830091541 | 65 | 218 | 0.0 | 3.0 | 0.00 | 0.06 | 0.02 | 84 | 1001.2 |
| 20260830090037 | 65 | 180 | 0.0 | 4.0 | 0.00 | 0.06 | 0.02 | 88 | 1001.2 |
| 20260830084532 | 64 | 161 | 0.0 | 4.0 | 0.00 | 0.07 | 0.02 | 88 | 1001.1 |
| 20260830081525 | 63 | 164 | 0.0 | 2.0 | 0.00 | 0.07 | 0.02 | 92 | 1001.1 |
| 20260830080023 | 63 | 166 | 0.0 | 3.0 | 0.00 | 0.07 | 0.02 | 93 | 1001.1 |
| 20260830074518 | 62 | 165 | 0.0 | 4.0 | 0.00 | 0.08 | 0.02 | 95 | 1000.9 |
| 20260830071514 | 62 | 166 | 0.0 | 3.0 | 0.00 | 0.08 | 0.02 | 97 | 1000.9 |
| 20260830070014 | 61 | 164 | 0.0 | 3.0 | 0.00 | 0.08 | 0.02 | 97 | 1000.8 |
| 20260830064509 | 61 | 163 | 0.0 | 3.0 | 0.00 | 0.11 | 0.02 | 97 | 1000.7 |